Earth resources
NORAD ID: 27004
Int'l Code: 2001-056D
Perigee: 992.4 km
Apogee: 1,020.5 km
Inclination: 99.2 °
Period: 105.1 minutes
Semi major axis: 7377 km
Launch date: December 10, 2001
Source: Germany (GER)
Two Line Element Set (TLE):
1 27004U 01056D 13140.08880418 -.00000036 00000-0 71293-5 0 1035
2 27004 099.1672 316.4858 0019015 256.9401 252.2028 13.70066622572139
Source:
NASA's NSSDC Master Catalog entry for MAROC TUBSAT